Showing default

SJ-30B, 66546

Orbit data source: Space-Track

SJ-30B, 66546 is a payload satellite owned by CASC (CN) in LEO that was launched on Wed, 19 Nov 2025 UTC via a CHANG ZHENG 2C launch vehicle from the Jiuquan Satellite Launch Center, China (JSC). Payload-class satellites include a variety of spacecraft equipped with specific instruments for various scientific and technological missions. These include communications satellites like Starlink; space stations such as the ISS; scientific satellites like the Hubble; Earth observation satellites from companies like Planet Labs, Umbra, and HawkEye 360; GPS; miniature CubeSats for education and research; and military/defense satellites.

Loading next visibility...
Identifier
66546, 2025-266B
Orbit
LEO
Country
Flag of CNCN / PRC
Related business
Manufacturer
SAST
Mission
Operational Defense Technology
Bus & Motor
SJ30, Unknown motor
Mass
~500 kg wet, ~500 kg dry
Launch date (UTC)
2025-11-19 (7 months ago)
Launch vehicle
CHANG ZHENG 2C
Launch site
Jiuquan Satellite Launch Center, China (JSC)
Object type
Payload
Rocket body
Debris
Shape & HBR
Box + 2 Pan, 14.5 m
Radar Cross Section
3.585 m², Large (>1 m²)

Expand to show TLE details & history
Last TLE update: 9 hours ago

TLE from 9 hours ago
0 SJ-30B
1 66546U 25266B   26171.47025020  .00005860  00000-0  32160-3 0  9999
2 66546  51.7960 163.9908 0007294 265.9615  94.0527 15.15472185 32358
Epoch: 2026-06-20T11:17Z
TLE epoch observation values (Epoch: 2026-06-20T11:17:09.617Z)
Latitude
-0.00006°
Longitude
86.01627°
Altitude
520.652 km
Speed
7.604 km/s
True Right ascension
10h 55m 57s
True Declination
0° 00' 00"
Sunlit
Object was in daylight at epoch
Visualization orbit readout
Latitude
Unknown
Longitude
Unknown
Altitude
Unknown
Speed
Unknown
Apparent Right ascension
Unknown
Apparent Declination
Unknown
Sunlit
N/A
Visualization observer readout
Local Sidereal Time
07:12:50
Azimuth
Unknown
Elevation
Unknown
Doppler factor
Unknown
Orbital elements
Apogee altitude
525.052 km
Perigee altitude
514.989 km
Semi-major axis
6,898.158 km
Eccentricity
0.00073
Inclination
51.796°
RAAN
163.9908°
Arg. of periapsis
265.9615°
True anomaly
94.13607°
Mean anomaly
94.0527°
Eccentric anomaly
94.09438°
Mean motion
3.78829 °/min
Orbital period
95.03 mins
BSTAR
0.0003216
Loading maneuver chart data...
Computing Atmospheric mass density...
Loading historical data...
Loading historical data...
Loading historical data...
Loading historical data...
Loading historical data...
Loading historical data...
Loading historical data...
Other satellites on launch #266 in the year 2025 (2025-11-19 UTC)

Documentation

Showing up to 5 results
|